Simultaneous Nadir Overpasses (SNOs) Predictions

Prediction of SNOs between METOP-A and TERRA Satellite Orbit:

Table of predicted SNOs for the next 14.0 days since TLE Epoch: 6/22/2013
Index Date (METOP-A) Time (METOP-A) Lat,Lon (METOP-A) SZA (METOP-A ) Date (TERRA) Time (TERRA) Lat,Lon (TERRA) SZA (TERRA ) Distance(km) Time Diff (sec)
1 06/24/2013 02:39:39 -81.29, 6.89 119.30 06/24/2013 02:39:59 -81.29, 6.92 119.29 0.94 20
2 06/24/2013 03:30:19 81.30, 174.51 60.74 06/24/2013 03:29:25 81.29, 174.67 60.73 2.78 54
3 06/26/2013 22:13:58 -81.30, 73.51 119.21 06/26/2013 22:14:12 -81.29, 73.48 119.21 0.54 14
4 06/26/2013 23:04:38 81.30,-118.93 60.83 06/26/2013 23:03:38 81.30,-118.81 60.81 2.02 60
5 06/29/2013 17:48:18 -81.30, 140.09 119.07 06/29/2013 17:48:26 -81.29, 139.91 119.09 3.08 8
6 06/29/2013 18:38:58 81.30, -52.39 60.96 06/29/2013 18:37:52 81.29, -52.41 60.92 0.70 66
7 07/02/2013 12:32:13 81.17, 33.05 60.35 07/02/2013 12:33:26 80.98, 33.82 60.33 24.67 73
8 07/02/2013 13:22:38 -81.30,-153.35 118.88 07/02/2013 13:22:39 -81.31,-153.40 118.88 1.04 1
9 07/02/2013 14:13:18 81.30, 14.12 61.15 07/02/2013 14:12:05 81.31, 14.25 61.13 2.33 73
10 07/05/2013 08:06:18 81.29, 104.94 61.25 07/05/2013 08:07:25 81.29, 105.11 61.31 2.98 67




NCC Satellite Simultaneous Nadir Overpasses (SNOs) Prediction Service
